This is the latest recevied weather packets stored in our database for station/object W8LMG. If no packets are shown the sender has not sent any weather packets the latest 10 day(s).
| Time | Temp. | Humidity | Pressure | Rain* | Wind** | Luminosity | Snow |
|---|---|---|---|---|---|---|---|
| 1777538535 | 10.56° C | 85% | 1011 hPa | 0 mm | - | 0 W/m² | - |
| 1777538231 | 10° C | 87% | 1010.8 hPa | 0 mm | - | 0 W/m² | - |
| 1777537927 | 10.56° C | 88% | 1010.5 hPa | 0 mm | - | 0 W/m² | - |
| 1777537623 | 10° C | 88% | 1010.8 hPa | 0 mm | - | 0 W/m² | - |
| 1777537320 | 10° C | 93% | 1010.7 hPa | 0 mm | - | 0 W/m² | - |
| 1777537015 | 9.44° C | 97% | 1010.8 hPa | 0 mm | - | 0 W/m² | - |
| 1777536713 | 9.44° C | 99% | 1010.9 hPa | 0 mm | - | 0 W/m² | - |
| 1777536410 | 9.44° C | 98% | 1010.8 hPa | 0 mm | - | 0 W/m² | - |
| 1777536106 | 9.44° C | 97% | 1010.9 hPa | 0 mm | - | 0 W/m² | - |
| 1777535802 | 9.44° C | 98% | 1011.2 hPa | 0 mm | - | 0 W/m² | - |
| 1777535499 | 10° C | 98% | 1010.9 hPa | 0 mm | - | 0 W/m² | - |
| 1777535196 | 10° C | 96% | 1011 hPa | 0 mm | - | 0 W/m² | - |
| 1777534892 | 10.56° C | 95% | 1010.9 hPa | 0 mm | - | 0 W/m² | - |
| 1777534590 | 10.56° C | 92% | 1011.2 hPa | 0 mm | - | 0 W/m² | - |
| 1777534287 | 10.56° C | 91% | 1010.9 hPa | 0 mm | - | 0 W/m² | - |
| 1777533985 | 10.56° C | 92% | 1010.8 hPa | 0 mm | - | 0 W/m² | - |
| 1777533681 | 10.56° C | 97% | 1010.9 hPa | 0 mm | - | 0 W/m² | - |
| 1777533377 | 9.44° C | 99% | 1010.8 hPa | 0 mm | - | 0 W/m² | - |
| 1777533074 | 9.44° C | 99% | 1010.7 hPa | 0 mm | - | 0 W/m² | - |
| 1777532772 | 10° C | 99% | 1010.7 hPa | 0 mm | - | 0 W/m² | - |
| 1777532468 | 10° C | 99% | 1010.7 hPa | 0 mm | - | 0 W/m² | - |
| 1777532165 | 9.44° C | 99% | 1010.7 hPa | 0 mm | - | 0 W/m² | - |
| 1777531861 | 9.44° C | 99% | 1010.9 hPa | 0 mm | - | 0 W/m² | - |
| 1777531556 | 9.44° C | 99% | 1010.9 hPa | 0 mm | - | 0 W/m² | - |
| 1777531254 | 9.44° C | 99% | 1010.9 hPa | 0 mm | - | 0 W/m² | - |
* Rain latest hour (hover to see other rain measurements)
** Current wind speed in m/s (hover to see current wind gust speed)